Weather History for Arlington, WA

Change the Weather History Date:

Monday, May 13, 2013

  Actual Average Record
Temperature  
Mean Temperature 56 °F -  
Max Temperature 64 °F 63 °F 75 °F (1997)
Min Temperature 48 °F 42 °F 37 °F (1977)
Degree Days  
Heating Degree Days 9    
Growing Degree Days 6 (Base 50)    
Moisture  
Dew Point 50 °F    
Average Humidity 80    
Maximum Humidity 93    
Minimum Humidity 52    
Precipitation  
Precipitation 0.15 in - - ()
Sea Level Pressure  
Sea Level Pressure 30.05 in    
Wind  
Wind Speed 7 mph (SSE)    
Max Wind Speed 24 mph    
Max Gust Speed 37 mph    
Visibility 10 miles    
Events      
Averages and records for this station are not official NWS values.
T = Trace of Precipitation, MM = Missing Value Source: NWS Daily Summary

Daily Weather History Graph

Daily Weather History Graph

Search for Another Location

Airport:

Trip Planner

Search our weather history database for the weather conditions in past years. The results will help you decide how hot, cold, wet, or windy it might be!

Date:

Astronomy

May. 13, 2013 Rise Set
Actual Time 5:31 AM PDT 8:39 PM PDT
Civil Twilight 4:54 AM PDT 9:16 PM PDT
Nautical Twilight 4:06 AM PDT 10:04 PM PDT
Astronomical Twilight 3:07 AM PDT 11:05 PM PDT
Moon 8:20 AM PDT (5/13) 11:51 PM PDT (5/13)
Length of Visible Light 16h 21m
Length of Day
15h 07m
Waxing Crescent, 13% of the Moon is Illuminated
May 13
Waxing Crescent
May 17
First Quarter
May 24
Full
May 31
Last Quarter
Jun 8
New

Hourly Weather History & Observations

Time (PDT) Temp. Dew Point Humidity Pressure Visibility Wind Dir Wind Speed Gust Speed Precip Events Conditions
12:15 AM 57.2 °F 53.6 °F 88% 30.05 in 10.0 mi Calm Calm - N/A   Overcast
12:35 AM 57.2 °F 53.6 °F 88% 30.05 in 10.0 mi Calm Calm - N/A   Overcast
12:55 AM 57.2 °F 53.6 °F 88% 30.05 in 10.0 mi Calm Calm - N/A   Overcast
1:15 AM 57.2 °F 53.6 °F 88% 30.05 in 10.0 mi South 3.5 mph - N/A   Overcast
1:35 AM 57.2 °F 53.6 °F 88% 30.05 in 10.0 mi South 3.5 mph - N/A   Overcast
1:55 AM 57.2 °F 51.8 °F 82% 30.05 in 10.0 mi SSW 3.5 mph - N/A   Overcast
2:15 AM 57.2 °F 51.8 °F 82% 30.05 in 10.0 mi South 3.5 mph - N/A   Overcast
2:35 AM 57.2 °F 51.8 °F 82% 30.05 in 10.0 mi SSW 4.6 mph - N/A   Overcast
2:55 AM 57.2 °F 51.8 °F 82% 30.05 in 10.0 mi SSE 4.6 mph - N/A   Overcast
3:15 AM 57.2 °F 53.6 °F 88% 30.04 in 10.0 mi SSE 3.5 mph - N/A   Overcast
3:35 AM 57.2 °F 53.6 °F 88% 30.03 in 10.0 mi SE 11.5 mph - N/A   Overcast
3:55 AM 57.2 °F 51.8 °F 82% 30.03 in 10.0 mi SE 11.5 mph - N/A   Overcast
4:15 AM 57.2 °F 51.8 °F 82% 30.03 in 10.0 mi SE 12.7 mph - N/A   Overcast
4:35 AM 57.2 °F 51.8 °F 82% 30.04 in 10.0 mi SSE 9.2 mph - N/A   Overcast
4:55 AM 57.2 °F 51.8 °F 82% 30.03 in 10.0 mi SSE 6.9 mph - N/A   Overcast
5:15 AM 57.2 °F 51.8 °F 82% 30.04 in 10.0 mi South 4.6 mph - N/A   Overcast
5:35 AM 57.2 °F 51.8 °F 82% 30.03 in 10.0 mi SE 9.2 mph - N/A   Overcast
5:55 AM 57.2 °F 51.8 °F 82% 30.03 in 10.0 mi SSE 6.9 mph - N/A   Overcast
6:15 AM 57.2 °F 51.8 °F 82% 30.03 in 10.0 mi SSE 6.9 mph - N/A   Mostly Cloudy
6:35 AM 57.2 °F 51.8 °F 82% 30.02 in 10.0 mi SE 8.1 mph - N/A   Scattered Clouds
6:55 AM 57.2 °F 51.8 °F 82% 30.01 in 10.0 mi SE 12.7 mph - N/A   Scattered Clouds
7:15 AM 57.2 °F 51.8 °F 82% 30.01 in 10.0 mi SE 11.5 mph - N/A   Mostly Cloudy
7:35 AM 57.2 °F 51.8 °F 82% 30.02 in 10.0 mi SSE 9.2 mph - N/A   Scattered Clouds
7:55 AM 57.2 °F 51.8 °F 82% 30.02 in 10.0 mi SSE 9.2 mph - N/A   Partly Cloudy
8:15 AM 57.2 °F 51.8 °F 82% 30.02 in 10.0 mi SSE 6.9 mph - N/A   Mostly Cloudy
8:35 AM 59.0 °F 51.8 °F 77% 30.01 in 10.0 mi SSE 9.2 mph - N/A   Overcast
8:55 AM 59.0 °F 51.8 °F 77% 30.02 in 10.0 mi SSE 11.5 mph - N/A   Overcast
9:15 AM 57.2 °F 53.6 °F 88% 30.01 in 10.0 mi SSE 15.0 mph - N/A   Overcast
9:35 AM 59.0 °F 53.6 °F 82% 30.00 in 10.0 mi SSE 13.8 mph 17.3 mph N/A   Scattered Clouds
9:55 AM 60.8 °F 53.6 °F 77% 30.00 in 10.0 mi SSE 11.5 mph - N/A   Mostly Cloudy
10:15 AM 59.0 °F 51.8 °F 77% 30.00 in 10.0 mi SSE 11.5 mph - N/A   Overcast
10:35 AM 60.8 °F 53.6 °F 77% 29.99 in 10.0 mi SSE 16.1 mph - N/A   Overcast
10:55 AM 62.6 °F 55.4 °F 77% 29.99 in 10.0 mi SSE 13.8 mph - N/A   Overcast
11:15 AM 62.6 °F 51.8 °F 68% 29.98 in 10.0 mi SSE 13.8 mph - N/A   Mostly Cloudy
11:35 AM 62.6 °F 55.4 °F 77% 29.97 in 10.0 mi SSE 13.8 mph - N/A   Mostly Cloudy
11:55 AM 64.4 °F 51.8 °F 64% 29.95 in 10.0 mi SSE 20.7 mph 25.3 mph N/A   Mostly Cloudy
12:15 PM 62.6 °F 51.8 °F 68% 29.95 in 10.0 mi South 16.1 mph - N/A   Overcast
12:35 PM 62.6 °F 51.8 °F 68% 29.95 in 10.0 mi SSW 11.5 mph 23.0 mph N/A   Overcast
1:35 PM 62.6 °F 50.0 °F 63% 29.94 in 10.0 mi SSW 18.4 mph 21.9 mph N/A   Mostly Cloudy
1:55 PM 60.8 °F 51.8 °F 72% 29.95 in 10.0 mi SSW 15.0 mph 23.0 mph N/A   Overcast
2:15 PM 59.0 °F 50.0 °F 72% 29.96 in 10.0 mi South 17.3 mph 27.6 mph N/A   Overcast
2:35 PM 62.6 °F 50.0 °F 63% 29.95 in 10.0 mi South 18.4 mph 25.3 mph N/A   Overcast
2:55 PM 62.6 °F 50.0 °F 63% 29.96 in 10.0 mi South 19.6 mph 25.3 mph N/A   Mostly Cloudy
3:15 PM 62.6 °F 48.2 °F 59% 29.96 in 10.0 mi SSW 16.1 mph 29.9 mph N/A   Mostly Cloudy
3:35 PM 60.8 °F 48.2 °F 63% 29.97 in 10.0 mi South 15.0 mph 26.5 mph N/A   Overcast
3:55 PM 62.6 °F 50.0 °F 63% 29.95 in 10.0 mi South 19.6 mph 25.3 mph N/A   Overcast
4:35 PM 62.6 °F 44.6 °F 52% 29.97 in 10.0 mi South 24.2 mph 36.8 mph N/A   Scattered Clouds
6:15 PM 51.8 °F 46.4 °F 82% 30.08 in 10.0 mi North 8.1 mph - N/A   Unknown
6:35 PM 51.8 °F 46.4 °F 82% 30.09 in 10.0 mi ENE 6.9 mph - N/A   Unknown
6:55 PM 51.8 °F 46.4 °F 82% 30.11 in 10.0 mi East 4.6 mph - N/A   Unknown
7:15 PM 50.0 °F 44.6 °F 82% 30.13 in 10.0 mi NNE 5.8 mph - N/A   Unknown
7:35 PM 48.2 °F 44.6 °F 87% 30.14 in 8.0 mi East 4.6 mph - N/A   Unknown
7:55 PM 48.2 °F 46.4 °F 93% 30.15 in 10.0 mi NE 5.8 mph - 0.09 in   Unknown
8:15 PM 48.2 °F 46.4 °F 93% 30.16 in 7.0 mi East 3.5 mph - 0.01 in   Unknown
8:35 PM 48.2 °F 44.6 °F 87% 30.17 in 10.0 mi SSE 8.1 mph - 0.01 in   Unknown
8:55 PM 48.2 °F 44.6 °F 87% 30.18 in 10.0 mi East 5.8 mph - 0.01 in   Unknown
9:15 PM 48.2 °F 44.6 °F 87% 30.19 in 10.0 mi ENE 6.9 mph - N/A   Unknown
9:35 PM 48.2 °F 44.6 °F 87% 30.19 in 10.0 mi ESE 3.5 mph - N/A   Unknown
9:55 PM 48.2 °F 44.6 °F 87% 30.20 in 10.0 mi Calm Calm - N/A   Unknown
10:15 PM 48.2 °F 44.6 °F 87% 30.21 in 10.0 mi Calm Calm - N/A   Unknown
10:35 PM 48.2 °F 44.6 °F 87% 30.21 in 7.0 mi ENE 4.6 mph - 0.05 in   Unknown
10:55 PM 48.2 °F 42.8 °F 82% 30.21 in 10.0 mi East 6.9 mph - 0.05 in   Unknown
11:15 PM 48.2 °F 44.6 °F 87% 30.21 in 10.0 mi East 4.6 mph - N/A   Unknown
11:35 PM 48.2 °F 44.6 °F 87% 30.21 in 10.0 mi Calm Calm - N/A   Unknown
11:55 PM 48.2 °F 44.6 °F 87% 30.21 in 10.0 mi ESE 3.5 mph - N/A   Unknown